Regional Weather Roundup
Issued by NWS

Home | Current Version | Previous Version | Graphics & Text | Print | Product List | Glossary On
Versions: 1 2 3 4 5 6 7 8 9 10 11 12 13 14 15 16 17 18 19 20 21 22 23 24 25 26 27 28 29 30 31 32 33 34 35 36 37 38 39 40 41 42 43 44 45 46 47 48 49 50
000
ASUS43 KMKX 280200
RWRWI

WISCONSIN REGIONAL WEATHER ROUNDUP
NATIONAL WEATHER SERVICE MILWAUKEE/SULLIVAN WI
900 PM CDT WED JUL 27 2016

NOTE: "FAIR" INDICATES FEW OR NO CLOUDS BELOW 12,000 FEET WITH NO
SIGNIFICANT WEATHER AND/OR OBSTRUCTIONS TO VISIBILITY.

WIZ001-002-006>008-014>016-023>028-280300-
NORTHWEST WISCONSIN

CITY           SKY/WX    TMP DP  RH WIND       PRES   REMARKS
SUPERIOR ARPT  CLOUDY    62  58  85 NE6       30.02S
ASHLAND        CLOUDY    63  61  93 N9        30.01F
HAYWARD        LGT RAIN  64  62  93 N8        30.00S FOG
SIREN          NOT AVBL
CUMBERLAND     MOCLDY    64  63  94 E3        29.96F
RICE LAKE      CLOUDY    65  63  91 CALM      29.97F
CHETEK         CLOUDY    65  64  95 NE6       29.96S
LADYSMITH      DRIZZLE   66  64  93 CALM      29.99S
EAU CLAIRE     MOCLDY    66  65  96 NE10      29.93S
MENOMONIE      MOCLDY    67  67  99 NE3       29.94R
NEW RICHMOND   CLOUDY    67  66  94 CALM      29.96R
OSCEOLA        PTCLDY    67  67 100 NW3       29.98R
$$

WIZ003>005-009-010-017-018-280300-
NORTH CENTRAL WISCONSIN

CITY           SKY/WX    TMP DP  RH WIND       PRES   REMARKS
MANITOWISH WTR RAIN      64  64 100 SE3       30.02R
ARBOR VITAE    HVY RAIN  66  64  94 NE3       30.03R
WOODRUFF       HVY RAIN  66  64  94 NE3       30.03R
RHINELANDER    LGT RAIN  64  62  93 CALM      30.03F
EAGLE RIVER    HVY RAIN  65  65 100 S3        30.04R
LAND O LAKES   LGT RAIN  66  65  97 NE3       30.03S
PHILLIPS       DRIZZLE   64  64  97 NE7       29.98F
TOMAHAWK       RAIN      63  61  95 CALM      30.01F
MEDFORD        LGT RAIN  62  62 100 E5        29.98F
MERRILL        TSTM      63  63 100 CALM      30.03R
$$

WIZ029-030-035-036-043>047-280300-
CENTRAL WISCONSIN

CITY           SKY/WX    TMP DP  RH WIND       PRES   REMARKS
WAUSAU         RAIN      65  63  93 NE6       30.00S FOG
MOSINEE        NOT AVBL
MARSHFIELD     LGT RAIN  66  63  90 NE10      29.96F
STEVENS POINT  LGT RAIN  68  68  99 N3        29.98R
WAUPACA        CLOUDY    74  73  96 CALM      29.96R
WAUTOMA        CLOUDY    72  71  97 CALM      29.95R
WISC RAPIDS    TSTM      68  65  90 VRB5      29.99R VSB 3/4
CAMP DOUGLAS   MOCLDY    73  70  88 E3        29.93S
$$

WIZ011>013-019>022-031-037>040-048>050-280300-
NORTHEAST WISCONSIN

CITY           SKY/WX    TMP DP  RH WIND       PRES   REMARKS
ANTIGO         RAIN      64  64  99 CALM      30.04R
SHAWANO        DRIZZLE   74  68  83 CALM      29.96R
OCONTO         CLOUDY   N/A N/A N/A CALM      29.94S
STURGEON BAY   PTCLDY    72  67  84 NE5       29.96S
GREEN BAY      CLOUDY    73  69  87 CALM      29.95S
MANITOWOC      NOT AVBL
APPLETON       MOCLDY    73  64  73 NE8       29.94S
CLINTONVILLE   RAIN      72  68  88 CALM      29.96R
OSHKOSH        CLOUDY    73  67  81 CALM      29.94S
$$

WIZ032>034-041-042-053>061-280300-
SOUTHWEST WISCONSIN

CITY           SKY/WX    TMP DP  RH WIND       PRES   REMARKS
LA CROSSE      CLOUDY    77  68  73 SE6       29.90R
SPARTA         MOCLDY    73  69  86 CALM      29.93S
VIROQUA        CLOUDY    73  67  83 SE5       29.93F
BOSCOBEL       CLOUDY    75  70  84 E3        29.92S
PRAIRIE DU CHI CLOUDY    74  67  78 E6        29.89F
PLATTEVILLE    CLOUDY    75  71  87 CALM      29.95R
$$

WIZ056-057-062-063-064-067-068-280300-
SOUTH CENTRAL WISCONSIN

CITY           SKY/WX    TMP DP  RH WIND       PRES   REMARKS
REEDSBURG      CLOUDY   N/A N/A N/A NE5       29.93S
BARABOO/DELLS  CLOUDY    73  68  84 CALM      29.94S
LONE ROCK      NOT AVBL
MINERAL POINT  PTCLDY    77  70  78 CALM      29.94F
MADISON        CLOUDY    77  68  73 SE7       29.93F
MIDDLETON      CLOUDY    77  70  78 E5        29.93F
WATERTOWN      CLOUDY    73  68  82 CALM      29.94S
MONROE         CLOUDY    79  66  65 NW3       29.94S HX  81
JANESVILLE     MOCLDY    79  70  73 E6        29.94R HX  81
$$

WIZ051-052-058>065-066-070>072-280300-
SOUTHEAST WISCONSIN

CITY           SKY/WX    TMP DP  RH WIND       PRES   REMARKS
MILWAUKEE      MOCLDY    73  68  84 E3        29.95R
WAUKESHA       CLEAR     72  63  73 E6        29.96S
MILWAUKEE/TIMM CLEAR     73  63  68 E3        29.96S
RACINE         PTCLDY    72  67  84 CALM      29.96S
BURLINGTON     CLOUDY    74  67  81 CALM      29.96R
KENOSHA        MOCLDY    72  69  90 E5        29.95S
FOND DU LAC    PTCLDY    74  67  78 E5        29.94S
SHEBOYGAN      LGT RAIN  68  67  96 CALM      29.95F FOG
WEST BEND      PTCLDY    70  64  83 CALM      29.95F
JUNEAU         CLOUDY    71  68  89 CALM      29.95S
$$

LSZ147-162-280300-
LAKE SUPERIOR

STATION/POSITION TIME  TEMP    WIND        PRES    WAVE
                       AIR SEA DIR/SP/G            HT/PER
                 (UTC) (F)     (DEG/KT/KT) (MB)    (FT/S)
W MID LAKE BUOY  0050   62 61   10/  6/  6 1016.2R   1/ 4
DEVILS ISLAND    0100   62      20/  8/  9 1017.0R
SAXON HARBOR     0100   67      60/  9/ 14 1015.6S
$$

LMZ867-665-643>646-280300-
LAKE MICHIGAN

STATION/POSITION TIME  TEMP    WIND        PRES    WAVE
                       AIR SEA DIR/SP/G            HT/PER
                 (UTC) (F)     (DEG/KT/KT) (MB)    (FT/S)
CHAMBERS ISLAND  0100   74     360/ 10/ 12 1014.6R
S GREEN BAY BUOY 0100   74 75   30/  6/  6   N/A
N MID LAKE BUOY  0050   71 71  320/  8/  8 1013.8F   0
NORTHPORT PIER   0100   73     100/  2/  4 1014.2F
SISTER BAY       0121   73        CALM       N/A
ALGOMA LAKESHORE 0113             CALM       N/A
KEWAUNEE LAKESHO 0100          160/  3/  4   N/A
SHEBOYGAN LAKESH 0100   71      CALM  /  1 1014.3R
PORT WASHINGTON  0140   69      30/  1/  3 1014.6F
ATWATER BUOY     0100   66 57  310/  4/  6 1015.6R
MILWAUKEE LAKESH 0110   71      20/  5/  6   N/A
S MID LAKE BUOY  0050   75 76   80/  6/  8 1012.8F   0
KENOSHA   LAKESH 0100   65      30/  8/ 11 1013.2S
$$

TC  - TEMPERATURE IN CELSIUS
VSB - VISIBILITY IN STATUTE MILES
WCI - WIND CHILL INDEX
HX  - HEAT INDEX





USA.gov is the U.S. government's official web portal to all federal, state and local government web resources and services.